Location: Newport
(44.6370°N, 124.0520°W)
Time: 00:39:25
(UTC-07:00)

Tiangong 1 - Pass Details

Date: 12 October 2017
Orbit: 294 x 320 km, 42.8° (Epoch: 17 October)

Event Time Altitude Azimuth Distance (km) Brightness Sun altitude
Rises 19:43:21 0° 272° (W) 2,043 6.9 -12.7°
Reaches altitude 10° 19:45:23 10° 265° (W) 1,208 5.0 -13.1°
Maximum altitude 19:47:59 44° 191° (SSW) 444 1.4 -13.6°
Enters shadow 19:49:04 27° 135° (SE) 642 1.8 -13.8°
